Location: Vancouver
(49.2500°N, 123.1330°W)
Time: 08:58:34
(UTC-07:00)

Transit 2A Rocket - Visible Passes

Search period start: 25 April 2015 00:00
Search period end: 05 May 2015 00:00
Orbit: 585 x 921 km, 66.7° (Epoch: 25 April)

Date Brightness Start Highest point End Pass type
(mag) Time Alt. Az. Time Alt. Az. Time Alt. Az.
25 Apr 7.7 00:37:06 10° WNW 00:41:48 22° NNW 00:46:22 10° NNE visible
25 Apr 8.2 02:23:30 10° NNW 02:26:45 15° N 02:29:56 10° NNE visible
25 Apr 7.8 04:07:13 10° NNW 04:11:42 22° NNE 04:16:03 10° ENE visible
25 Apr 5.4 22:09:31 10° SW 22:15:38 85° NW 22:21:49 10° NE visible
25 Apr 7.4 23:54:02 10° W 23:59:13 27° NNW 00:04:18 10° NNE visible
26 Apr 8.2 01:40:34 10° NW 01:44:00 15° N 01:47:19 10° NNE visible
26 Apr 8.0 03:25:05 10° NNW 03:29:04 18° NNE 03:32:57 10° ENE visible
26 Apr 6.5 05:07:42 10° NNW 05:13:20 44° NE 05:18:32 10° ESE visible
26 Apr 5.3 21:27:32 10° SSW 21:33:33 67° ESE 21:39:40 10° NE visible
26 Apr 7.0 23:11:08 10° WSW 23:16:44 35° NW 23:22:16 10° NNE visible
27 Apr 8.1 00:57:27 10° NW 01:01:16 16° NNW 01:04:56 10° NNE visible
27 Apr 8.2 02:42:49 10° NNW 02:46:21 16° NNE 02:49:50 10° NE visible
27 Apr 7.1 04:25:40 10° NNW 04:30:56 33° NE 04:35:53 10° E visible
27 Apr 6.5 22:28:27 10° WSW 22:34:21 47° NW 22:40:15 10° NNE visible
28 Apr 8.0 00:14:16 10° WNW 00:18:34 19° NNW 00:22:44 10° NNE visible
28 Apr 8.3 02:00:21 10° NNW 02:03:37 15° N 02:06:49 10° NE visible
28 Apr 7.6 03:43:37 10° NNW 03:48:26 25° NNE 03:53:01 10° E visible
28 Apr 5.8 21:46:00 10° SW 21:52:05 66° NW 21:58:11 10° NNE visible
28 Apr 7.8 23:31:06 10° W 23:35:56 23° NNW 23:40:38 10° NNE visible
29 Apr 8.3 01:17:36 10° NW 01:20:51 14° N 01:24:00 10° NNE visible
29 Apr 7.9 03:01:31 10° NNW 03:05:50 20° NNE 03:10:00 10° ENE visible
29 Apr 5.9 04:44:05 10° NNW 04:49:51 57° NE 04:55:07 10° SE visible
29 Apr 5.4 21:03:48 10° SSW 21:09:55 87° SE 21:16:05 10° NE visible
29 Apr 7.4 22:48:04 10° W 22:53:23 29° NNW 22:58:35 10° NNE visible
30 Apr 8.3 00:34:36 10° NW 00:38:05 15° N 00:41:27 10° NNE visible
30 Apr 8.1 02:19:21 10° NNW 02:23:10 17° NNE 02:26:53 10° ENE visible
30 Apr 6.6 04:02:01 10° NNW 04:07:31 40° NE 04:12:37 10° ESE visible
30 Apr 7.0 22:05:13 10° WSW 22:10:55 38° NW 22:16:33 10° NNE visible
30 Apr 8.2 23:51:26 10° NW 23:55:21 17° NNW 23:59:08 10° NNE visible
01 May 8.3 01:37:02 10° NNW 01:40:26 15° N 01:43:47 10° NE visible
01 May 7.2 03:19:58 10° NNW 03:25:05 30° NE 03:29:54 10° E visible
01 May 5.1 05:02:37 10° NW 05:08:23 74° WSW 05:13:36 10° SSE visible
01 May 6.4 21:22:35 10° WSW 21:28:34 52° NW 21:34:31 10° NNE visible
01 May 8.0 23:08:14 10° WNW 23:12:40 20° NNW 23:16:58 10° NNE visible
02 May 8.3 00:54:29 10° NNW 00:57:41 14° N 01:00:48 10° NE visible
02 May 7.6 02:37:55 10° NNW 02:42:33 23° NNE 02:46:59 10° E visible
02 May 5.4 04:20:27 10° NW 04:26:17 75° NE 04:31:33 10° SE visible
02 May 7.8 22:25:05 10° W 22:30:04 24° NNW 22:34:53 10° NNE visible
03 May 8.3 00:11:39 10° NW 00:14:55 15° N 00:18:04 10° NNE visible
03 May 7.9 01:55:49 10° NNW 01:59:55 19° NNE 02:03:55 10° ENE visible
03 May 6.1 03:38:22 10° NNW 03:44:03 51° NE 03:49:14 10° ESE visible
03 May 7.4 21:42:05 10° W 21:47:32 31° NW 21:52:50 10° NNE visible
03 May 8.2 23:28:35 10° NW 23:32:09 16° N 23:35:35 10° NNE visible
04 May 8.1 01:13:36 10° NNW 01:17:14 16° NNE 01:20:47 10° NE visible
04 May 6.7 02:56:19 10° NNW 03:01:41 36° NE 03:06:40 10° ESE visible
04 May 5.2 04:39:06 10° NW 04:44:39 53° WSW 04:49:40 10° SSE visible
04 May 8.1 22:45:23 10° WNW 22:49:26 18° NNW 22:53:20 10° NNE visible
